Tracking 25710 objects as of 7-Jul-2022
HD Live streaming from Space Station
objects crossing your sky now

FENGYUN 1C DEB

Track FENGYUN 1C DEB now!
10-day predictions


NORAD ID: 35152
Int'l Code: 1999-025DMG
Perigee: 847.0 km
Apogee: 1,140.8 km
Inclination: 99.7 °
Period: 104.8 minutes
Semi major axis: 7364 km
RCS: 0.009 m2 (small)
Launch date: May 10, 1999
Source: People's Republic of China (PRC)
Launch site: Taiyaun Space Center, China (TSC)

Note: This is SATELLITE DEBRIS
aabbcc
Your satellite tracking list
Your tracking list is empty




NASA's NSSDC Master Catalog

Two Line Element Set (TLE):
1 35152U 99025DMG 22187.63062448  .00000422  00000-0  43568-3 0  9991
2 35152  99.7240 322.7900 0199455  20.4939 340.4071 13.73578126732905
Source of the keplerian elements: AFSPC